Main page
Satellite images Climate Cyclones Lightning AirportsFAQ Languages Contact Newsletter About
Weather : Europe Africa North America South America Asia Australia-Oceania Others

phnom-penh-kh, Phnom Penh, Phnom Penh International Airport

latitude: , longitude: Cambodia, elevation: 11-33N m


METAR: VDPP 240430Z 20005KT 140V230 9999 SCT017 32/23 Q1011